EW5523 Weather Reports


Display with metric or nautical units.
time (UTC)temp
F
wind
direction
speed
MPH
gust
MPH
rain 1hr
in
rain 24hr
in
rain mn
in
humidity
%
barometer
mb
20260901003027 49 317 0.0 0.0 0.00 0.00 0.00 93 1017.8
20260901001526 49 317 0.0 0.0 0.00 0.00 0.00 93 1017.8
20260901000026 49 317 0.0 0.0 0.00 0.00 0.00 93 1017.8
20260831234526 49 317 0.0 0.0 0.00 0.00 0.00 93 1017.7
20260831233025 49 317 0.0 0.0 0.00 0.00 0.00 93 1017.7
20260831231523 49 317 0.0 0.0 0.00 0.00 0.00 92 1017.7
20260831230024 50 317 0.0 0.0 0.00 0.00 0.00 92 1017.8
20260831224521 50 317 0.0 0.0 0.00 0.00 0.00 92 1017.9
20260831223025 50 317 0.0 0.0 0.00 0.00 0.00 92 1017.8
20260831221520 50 317 0.0 0.0 0.00 0.00 0.00 92 1017.9
20260831220020 50 317 0.0 0.0 0.00 0.00 0.00 91 1017.7
20260831214519 50 317 0.0 0.0 0.00 0.00 0.00 91 1017.7
20260831213018 50 317 0.0 0.0 0.00 0.00 0.00 91 1017.8
20260831211516 49 317 0.0 0.0 0.00 0.00 0.00 92 1017.8
20260831210014 49 317 0.0 0.0 0.00 0.00 0.00 92 1017.9
20260831204512 48 317 0.0 0.0 0.00 0.00 0.00 91 1017.9
20260831203014 48 317 0.0 0.0 0.00 0.00 0.00 91 1018.0
20260831201511 48 318 0.0 0.0 0.00 0.00 0.00 91 1018.0
20260831200020 48 317 0.0 0.0 0.00 0.00 0.00 90 1017.9
20260831194509 48 318 0.0 0.0 0.00 0.00 0.00 91 1017.9
20260831193010 48 317 0.0 0.0 0.00 0.00 0.00 89 1017.9
20260831191508 49 317 0.0 0.0 0.00 0.00 0.00 88 1017.9
20260831190007 50 318 0.0 0.0 0.00 0.00 0.00 87 1017.8
20260831184506 50 318 0.0 0.0 0.00 0.00 0.00 87 1017.8
20260831183006 50 317 0.0 0.0 0.00 0.00 0.00 87 1017.8
20260831181506 50 318 0.0 0.0 0.00 0.00 0.00 87 1017.8
20260831180008 49 318 0.0 0.0 0.00 0.00 0.00 88 1017.8
20260831174517 49 317 0.0 0.0 0.00 0.00 0.00 85 1017.7
20260831173004 50 317 0.0 0.0 0.00 0.00 0.00 85 1017.7
20260831171505 51 318 0.0 0.0 0.00 0.00 0.00 83 1017.7
20260831170003 51 317 0.0 0.0 0.00 0.00 0.00 84 1017.7
20260831164509 51 318 0.0 0.0 0.00 0.00 0.00 83 1017.7
20260831163006 53 317 0.0 0.0 0.00 0.00 0.00 80 1017.7
20260831161501 55 317 0.0 0.0 0.00 0.00 0.00 74 1017.7
20260831160001 55 317 0.0 0.0 0.00 0.00 0.00 72 1017.6
20260831154501 55 318 0.0 0.0 0.00 0.00 0.00 71 1017.5
20260831153001 57 317 0.0 0.0 0.00 0.00 0.00 68 1017.5
20260831151607 58 317 0.0 0.0 0.00 0.00 0.00 65 1017.5
20260831150059 58 318 0.0 0.0 0.00 0.00 0.00 64 1017.5
20260831144614 60 318 0.0 0.0 0.00 0.00 0.00 62 1017.5
20260831143103 61 317 0.0 0.0 0.00 0.00 0.00 58 1017.5
20260831141613 63 318 0.0 0.0 0.00 0.00 0.00 56 1017.7
20260831140056 63 312 0.0 0.0 0.00 0.00 0.00 54 1017.8
20260831134557 63 256 0.0 8.0 0.00 0.00 0.00 52 1017.8
20260831133055 64 293 0.0 2.0 0.00 0.00 0.00 53 1017.8
20260831131557 64 320 0.0 1.0 0.00 0.00 0.00 52 1017.9
20260831130056 64 297 1.0 8.0 0.00 0.00 0.00 51 1017.9
20260831124554 63 299 0.0 6.0 0.00 0.00 0.00 52 1017.9
20260831123052 64 305 1.0 9.0 0.00 0.00 0.00 51 1018.1
20260831121551 63 314 1.0 8.0 0.00 0.00 0.00 52 1018.1
20260831120050 64 278 0.0 6.0 0.00 0.00 0.00 52 1018.1
20260831114547 63 41 0.0 10.0 0.00 0.00 0.00 53 1018.3
20260831113046 63 316 0.0 4.0 0.00 0.00 0.00 53 1018.3
20260831111601 63 299 1.0 6.0 0.00 0.00 0.00 53 1018.4
20260831110048 63 303 0.0 6.0 0.00 0.00 0.00 52 1018.5
20260831104554 62 307 0.0 6.0 0.00 0.00 0.00 53 1018.6
20260831103040 62 276 0.0 4.0 0.00 0.00 0.00 55 1018.7
20260831101537 61 310 0.0 5.0 0.00 0.00 0.00 57 1018.8
20260831100035 60 332 0.0 7.0 0.00 0.00 0.00 59 1018.9
20260831094533 61 10 0.0 7.0 0.00 0.00 0.00 55 1019.1
20260831093040 60 285 0.0 9.0 0.00 0.00 0.00 56 1019.1
20260831091528 59 280 0.0 6.0 0.00 0.00 0.00 57 1019.2
20260831090026 60 284 0.0 6.0 0.00 0.00 0.00 61 1019.3
20260831084523 59 274 0.0 6.0 0.00 0.00 0.00 62 1019.5
20260831083023 58 308 0.0 4.0 0.00 0.00 0.00 63 1019.6
20260831081521 59 201 0.0 0.0 0.00 0.00 0.00 61 1019.7
20260831080022 57 301 0.0 5.0 0.00 0.00 0.00 64 1019.9
20260831074514 57 249 0.0 5.0 0.00 0.00 0.00 64 1020.1
20260831073014 57 278 0.0 4.0 0.00 0.00 0.00 66 1020.3
20260831071525 56 280 0.0 6.0 0.00 0.00 0.00 66 1020.4
20260831070007 56 133 0.0 0.0 0.00 0.00 0.00 67 1020.6
20260831064505 54 235 0.0 1.0 0.00 0.00 0.00 68 1020.7
20260831063002 54 339 0.0 3.0 0.00 0.00 0.00 67 1020.7
20260831061558 53 162 0.0 0.0 0.00 0.00 0.00 70 1020.8
20260831060055 52 204 0.0 1.0 0.00 0.00 0.00 70 1020.9
20260831054552 51 278 0.0 2.0 0.00 0.00 0.00 72 1021.1
20260831053049 50 293 0.0 0.0 0.00 0.00 0.00 76 1021.2
20260831051545 48 283 0.0 4.0 0.00 0.00 0.00 80 1021.2
20260831050041 47 262 0.0 0.0 0.00 0.00 0.00 81 1021.4
20260831044540 47 277 0.0 0.0 0.00 0.00 0.00 82 1021.4
20260831043035 45 326 0.0 0.0 0.00 0.00 0.00 87 1021.4
20260831041532 43 327 0.0 0.0 0.00 0.00 0.00 89 1021.6
20260831040032 42 330 0.0 0.0 0.00 0.00 0.00 92 1021.6
20260831034525 41 331 0.0 0.0 0.00 0.00 0.00 94 1021.6
20260831033027 40 330 0.0 0.0 0.00 0.00 0.00 95 1021.7
20260831031521 39 330 0.0 0.0 0.00 0.00 0.00 95 1021.7
20260831030023 38 330 0.0 0.0 0.00 0.00 0.00 95 1021.6
20260831024520 37 330 0.0 0.0 0.00 0.00 0.00 95 1021.6
20260831023024 36 330 0.0 0.0 0.00 0.00 0.00 95 1021.6
20260831021519 36 330 0.0 0.0 0.00 0.00 0.00 94 1021.6
20260831020017 36 330 0.0 0.0 0.00 0.00 0.00 94 1021.6
20260831014516 35 330 0.0 0.0 0.00 0.00 0.00 93 1021.5
20260831013015 36 330 0.0 0.0 0.00 0.00 0.00 93 1021.5
20260831011513 36 330 0.0 0.0 0.00 0.00 0.00 93 1021.5
20260831010011 36 330 0.0 0.0 0.00 0.00 0.00 92 1021.5
20260831004511 37 331 0.0 0.0 0.00 0.00 0.00 92 1021.4